Wind_Speed
45 46 45 43 43 44 44 45 44 43 43 44 43 43 43 43 43 43 42 42 42 41 40 40 39 37 38 38 37 36 35 33 32 33 34 34 35 34
45 44 43 43 43 44 44 45 45 45 45 45 45 45 45 45 45 45 44 43 42 41 40 40 39 37 36 36 36 36 36 36 36 35 34 33 33 32
46 46 43 42 42 44 45 45 46 46 47 48 49 48 48 48 48 48 48 48 46 44 43 43 42 41 41 40 38 37 37 36 35 34 34 35 35 34
51 50 50 48 45 45 47 47 47 48 50 51 53 53 53 53 53 54 54 53 53 51 50 49 48 48 47 47 46 45 42 41 40 38 37 35 34 34
55 55 54 53 52 53 53 52 52 52 52 53 53 56 57 58 58 59 60 60 59 58 57 56 55 54 53 53 52 51 50 47 45 43 41 40 39 37
66 62 60 60 58 57 58 58 58 58 57 56 56 55 56 58 60 61 63 64 64 63 62 60 59 58 56 54 54 53 52 50 49 47 46 44 43 41
69 63 63 63 62 59 60 59 59 60 60 58 58 60 61 60 60 62 63 64 66 65 65 64 62 61 59 59 57 55 53 51 50 49 49 48 46 44
76 74 68 65 64 66 65 61 62 63 60 58 61 63 65 67 67 67 66 66 67 69 66 67 66 65 63 61 60 59 56 54 53 52 51 50 48 46
71 68 69 72 70 67 67 65 63 64 62 61 63 62 62 64 66 67 70 70 69 70 69 68 69 69 67 66 65 63 61 61 58 56 54 52 50 49
60 58 59 58 57 57 58 60 60 60 62 61 59 58 61 65 70 70 70 69 69 71 71 67 69 70 70 69 68 66 65 63 62 62 60 57 55 53
54 52 53 53 54 54 57 58 56 57 58 57 58 61 63 67 72 72 71 69 67 68 71 68 65 66 68 70 70 69 67 67 66 64 64 62 60 57
52 50 51 50 51 52 53 57 57 59 58 60 60 62 64 66 69 69 68 67 66 64 67 69 66 66 61 65 64 65 67 68 68 67 64 64 64 61
51 51 52 52 54 56 57 57 59 59 59 61 62 64 66 67 66 64 61 59 58 56 58 60 58 59 60 54 59 61 60 61 62 65 65 64 63 64
52 54 55 57 59 59 58 59 60 59 60 61 62 63 61 58 56 54 53 52 50 49 50 52 50 51 52 49 47 52 56 57 59 61 64 66 67 66
54 55 58 59 58 57 57 57 57 57 56 54 52 50 50 49 48 48 48 47 45 44 42 43 45 44 44 42 41 44 47 50 51 51 54 58 61 64
57 56 52 51 51 50 49 47 46 45 43 43 43 44 43 43 43 42 42 42 41 41 41 40 41 42 38 40 39 41 43 43 47 45 46 50 53 56
44 42 41 40 39 39 39 38 38 39 39 39 39 39 39 39 38 37 37 37 37 38 39 40 39 41 39 39 39 40 40 41 42 44 45 48 50 51
37 37 37 37 37 36 36 37 36 36 36 36 35 35 35 35 35 34 34 34 35 36 36 38 40 41 42 39 40 39 40 40 41 42 44 45 48 50
35 34 31 29 29 29 31 33 34 34 34 35 35 34 34 34 33 33 33 33 32 33 36 38 39 39 41 43 43 45 43 42 40 41 42 42 43 47
28 25 24 23 24 27 28 30 33 34 34 34 35 35 35 35 35 35 35 35 34 34 34 36 37 38 39 40 40 43 43 40 40 40 41 39 39 42
30 30 28 28 27 27 30 30 34 35 34 36 37 36 37 36 37 36 36 37 38 36 35 36 37 37 37 37 37 37 41 40 38 39 40 39 39 40
38 37 36 35 36 39 38 37 36 37 37 39 40 41 41 41 41 39 38 38 38 39 39 37 38 38 38 38 36 35 38 41 39 37 40 41 41 41
48 46 45 45 45 44 45 49 46 43 43 41 42 43 44 44 43 43 41 39 40 40 41 41 40 39 38 41 38 36 39 40 41 37 39 42 41 41
Wind_Direction
274 273 271 269 269 269 268 269 269 268 266 266 266 266 265 265 265 265 266 266 266 265 265 264 263 262 263 264 262 263 263 262 264 266 267 268 271 275
271 272 273 271 269 269 269 268 268 268 268 267 267 267 267 267 266 266 266 265 265 265 266 267 268 267 265 263 265 265 264 263 262 262 264 268 270 273
274 270 271 272 271 269 268 268 268 268 268 268 268 268 268 268 268 267 266 266 266 266 265 265 266 267 269 269 266 265 267 266 265 264 264 265 266 271
276 274 270 268 270 271 269 269 269 269 270 271 271 270 270 270 269 270 269 268 267 267 266 266 267 267 267 268 269 268 267 267 266 265 265 266 268 269
276 274 272 272 272 270 272 275 274 272 270 270 272 272 273 272 270 269 268 269 268 268 269 268 268 267 267 268 267 267 266 266 265 265 265 265 266 267
276 277 271 271 272 272 272 275 275 275 275 274 273 274 272 271 271 271 271 269 268 268 268 268 269 269 267 267 267 266 265 264 264 264 263 263 264 265
274 274 271 268 269 269 271 275 276 276 276 276 275 274 273 273 272 271 270 269 270 269 269 269 269 268 269 269 267 266 264 263 263 262 263 263 262 263
268 270 266 267 267 269 271 272 275 273 275 273 275 277 276 275 274 273 272 271 271 269 270 269 269 268 267 266 265 266 266 264 263 262 262 261 261 261
268 267 265 263 265 268 271 273 271 271 271 274 278 281 281 282 281 279 275 273 274 271 270 272 268 268 267 267 267 266 264 265 265 262 261 260 260 258
268 266 265 267 265 265 264 265 268 267 270 275 277 281 283 283 283 283 283 281 279 276 273 274 272 271 269 267 266 265 265 264 263 262 261 260 259 258
266 266 266 263 261 261 263 262 268 270 271 274 277 281 283 283 284 284 284 284 283 282 279 276 273 271 271 268 266 266 264 262 261 260 260 259 258 256
266 266 266 267 267 265 264 266 270 271 273 276 279 282 283 283 283 283 282 282 280 278 276 277 276 274 270 270 267 266 263 262 261 260 257 255 254 252
261 263 264 267 267 269 270 270 272 273 276 278 278 283 282 282 281 280 279 277 276 274 271 271 269 267 266 260 262 259 255 253 251 252 252 250 248 247
258 260 262 265 268 271 273 273 276 278 278 280 280 281 279 277 276 275 275 274 272 270 268 266 262 261 260 256 250 254 253 248 246 243 242 241 239 238
270 270 270 271 272 273 273 273 273 272 273 274 274 274 275 276 276 277 277 275 274 271 267 263 260 253 252 251 249 249 250 253 248 244 243 242 240 236
277 276 270 266 265 265 266 267 268 269 271 272 274 275 275 276 276 276 276 275 273 272 268 262 255 248 249 247 246 248 252 250 253 249 246 245 242 240
265 264 264 265 264 266 266 268 269 269 270 270 272 273 274 275 276 276 273 272 271 270 268 264 253 247 249 247 247 248 251 254 251 250 246 244 243 240
261 263 264 265 266 267 266 266 266 266 267 269 270 271 272 274 276 276 276 274 271 268 266 264 261 251 247 249 250 257 257 256 256 252 248 245 243 239
259 258 259 260 261 262 264 266 269 270 273 275 276 276 276 275 276 278 278 276 274 270 265 262 260 257 252 253 257 257 256 257 256 252 249 244 241 237
251 254 258 260 266 268 273 276 275 275 277 278 278 276 276 276 277 277 277 277 276 274 272 267 261 257 255 254 255 257 252 252 253 249 246 240 235 234
250 258 263 265 271 273 277 278 276 275 280 281 280 279 278 278 278 277 275 275 275 274 273 271 268 261 256 254 254 255 258 254 247 246 243 236 231 232
251 254 259 263 269 270 271 270 270 271 277 279 280 281 278 279 281 283 284 279 276 274 272 271 267 265 261 254 251 253 254 255 250 239 239 236 230 230
253 256 258 261 265 268 271 268 268 267 272 275 279 278 273 275 277 278 279 279 279 278 276 271 269 264 261 257 252 249 251 251 250 240 232 235 230 230
Height
5692 5692 5692 5692 5692 5693 5692 5693 5694 5696 5697 5697 5698 5699 5700 5702 5703 5704 5705 5707 5709 5710 5712 5713 5715 5717 5719 5720 5722 5724 5725 5726 5727 5729 5730 5730 5729 5730
5680 5681 5681 5681 5682 5682 5682 5682 5683 5684 5685 5686 5687 5689 5690 5691 5692 5694 5695 5697 5699 5701 5703 5703 5704 5706 5709 5711 5713 5715 5717 5718 5720 5722 5723 5723 5722 5723
5669 5669 5669 5670 5671 5672 5672 5672 5672 5673 5673 5674 5675 5677 5678 5679 5680 5682 5683 5685 5687 5690 5692 5694 5695 5697 5699 5701 5704 5706 5709 5711 5712 5714 5715 5715 5715 5716
5656 5657 5658 5658 5658 5659 5660 5660 5661 5661 5662 5662 5662 5663 5665 5667 5668 5669 5670 5672 5674 5676 5679 5682 5685 5687 5689 5691 5692 5695 5698 5701 5703 5706 5708 5708 5708 5709
5642 5643 5644 5644 5645 5645 5646 5647 5648 5648 5649 5649 5649 5649 5649 5651 5652 5654 5655 5657 5659 5661 5663 5667 5671 5674 5676 5678 5681 5683 5686 5690 5693 5696 5698 5699 5700 5701
5626 5628 5629 5630 5630 5630 5631 5632 5632 5633 5634 5634 5635 5635 5635 5635 5636 5637 5638 5640 5642 5645 5647 5651 5654 5657 5661 5664 5666 5669 5673 5678 5681 5684 5686 5688 5691 5693
5609 5611 5613 5613 5613 5614 5615 5616 5616 5617 5618 5618 5618 5618 5618 5619 5619 5620 5622 5623 5623 5628 5631 5633 5638 5642 5644 5647 5649 5653 5659 5664 5667 5671 5673 5676 5680 5683
5592 5593 5595 5596 5596 5597 5598 5599 5600 5601 5602 5602 5602 5602 5601 5602 5602 5603 5604 5606 5607 5608 5612 5614 5619 5622 5626 5629 5633 5638 5643 5648 5652 5656 5659 5663 5668 5672
5571 5573 5575 5577 5578 5580 5581 5582 5582 5583 5584 5584 5584 5585 5584 5583 5584 5584 5584 5587 5588 5590 5595 5595 5599 5601 5605 5610 5613 5621 5627 5630 5635 5639 5643 5649 5655 5659
5553 5554 5557 5559 5560 5562 5563 5565 5566 5565 5566 5567 5567 5567 5567 5565 5564 5564 5565 5567 5567 5568 5573 5576 5578 5579 5583 5589 5594 5601 5606 5611 5616 5621 5627 5634 5640 5645
5537 5538 5541 5542 5543 5545 5547 5548 5548 5548 5549 5551 5551 5549 5548 5547 5545 5546 5545 5547 5548 5546 5547 5554 5556 5561 5562 5567 5573 5579 5583 5589 5595 5601 5609 5617 5622 5627
5522 5522 5524 5526 5527 5529 5530 5531 5531 5531 5533 5533 5532 5530 5529 5528 5527 5527 5527 5527 5528 5528 5524 5532 5532 5536 5542 5542 5547 5553 5558 5565 5572 5580 5588 5596 5602 5608
5507 5508 5509 5510 5511 5513 5514 5515 5514 5515 5515 5515 5513 5512 5512 5511 5508 5507 5507 5507 5508 5507 5505 5511 5512 5513 5519 5524 5523 5528 5533 5541 5550 5557 5564 5572 5580 5588
5492 5494 5495 5496 5497 5497 5497 5497 5497 5498 5497 5496 5495 5494 5493 5491 5490 5490 5489 5490 5491 5491 5489 5492 5496 5495 5499 5504 5509 5507 5512 5520 5527 5535 5541 5547 5556 5565
5477 5478 5480 5480 5480 5480 5480 5480 5480 5480 5480 5478 5478 5477 5477 5476 5474 5475 5474 5474 5474 5474 5475 5476 5478 5481 5485 5489 5494 5495 5498 5501 5509 5517 5522 5526 5533 5542
5461 5462 5463 5463 5463 5463 5464 5464 5465 5465 5464 5464 5464 5463 5463 5462 5461 5462 5461 5461 5460 5460 5461 5463 5465 5469 5474 5477 5481 5482 5485 5491 5494 5502 5506 5510 5516 5523
5447 5448 5448 5449 5450 5451 5452 5452 5453 5453 5453 5452 5452 5452 5451 5450 5450 5450 5449 5450 5449 5449 5449 5450 5454 5458 5461 5464 5467 5470 5474 5477 5482 5486 5492 5496 5500 5507
5436 5436 5437 5438 5439 5439 5440 5441 5441 5442 5442 5442 5442 5441 5441 5440 5439 5439 5439 5439 5439 5438 5439 5439 5441 5445 5449 5453 5455 5459 5462 5465 5467 5472 5476 5481 5485 5492
5424 5425 5425 5427 5428 5429 5430 5430 5431 5431 5431 5431 5431 5431 5431 5430 5430 5430 5429 5429 5429 5428 5428 5428 5429 5433 5437 5440 5443 5446 5449 5452 5455 5458 5462 5467 5471 5476
5413 5414 5415 5417 5418 5419 5420 5420 5420 5420 5421 5421 5421 5420 5420 5421 5420 5420 5419 5419 5419 5418 5417 5416 5418 5421 5424 5428 5431 5430 5435 5440 5442 5445 5449 5454 5459 5464
5402 5403 5405 5407 5408 5409 5410 5410 5410 5410 5411 5410 5410 5410 5410 5410 5409 5410 5409 5408 5408 5407 5407 5406 5406 5408 5412 5415 5418 5419 5421 5425 5430 5433 5437 5443 5448 5453
5389 5391 5393 5395 5397 5398 5399 5399 5399 5400 5400 5400 5400 5399 5399 5399 5399 5399 5398 5398 5397 5396 5396 5396 5396 5397 5399 5401 5405 5408 5409 5412 5417 5422 5425 5430 5437 5442
5376 5377 5380 5382 5383 5385 5386 5387 5387 5388 5388 5388 5388 5387 5387 5387 5387 5387 5387 5386 5386 5385 5384 5384 5384 5385 5387 5388 5393 5397 5398 5400 5403 5409 5414 5417 5424 5431